TimeCST,TemperatureF,Dew PointF,Humidity,Sea Level PressureIn,VisibilityMPH,Wind Direction,Wind SpeedMPH,Gust SpeedMPH,PrecipitationIn,Events,Conditions,WindDirDegrees,DateUTC
12:53 AM,50.0,37.0,61,30.17,10.0,NNW,9.2,-,N/A,,Overcast,340,2014-01-15 06:53:00
1:53 AM,50.0,33.1,52,30.18,10.0,North,10.4,-,N/A,,Overcast,350,2014-01-15 07:53:00
2:53 AM,48.0,30.0,50,30.20,10.0,NNW,9.2,19.6,0.00,Rain,Light Rain,330,2014-01-15 08:53:00
3:53 AM,46.9,24.1,41,30.23,10.0,NNW,10.4,19.6,0.00,,Clear,340,2014-01-15 09:53:00
4:53 AM,44.1,23.0,43,30.24,10.0,NNW,9.2,-,N/A,,Clear,340,2014-01-15 10:53:00
5:53 AM,41.0,23.0,49,30.25,10.0,NNW,6.9,-,N/A,,Clear,340,2014-01-15 11:53:00
6:53 AM,39.0,19.9,46,30.26,10.0,NNW,5.8,-,N/A,,Clear,340,2014-01-15 12:53:00
7:53 AM,41.0,19.9,43,30.27,10.0,NNW,3.5,-,N/A,,Clear,330,2014-01-15 13:53:00
8:53 AM,45.0,23.0,42,30.30,10.0,NW,8.1,-,N/A,,Clear,310,2014-01-15 14:53:00
9:53 AM,46.0,24.1,42,30.32,10.0,NW,11.5,-,N/A,,Clear,310,2014-01-15 15:53:00
10:53 AM,48.9,21.0,33,30.30,10.0,NW,11.5,-,N/A,,Clear,310,2014-01-15 16:53:00
11:53 AM,50.0,19.9,31,30.25,10.0,NNW,9.2,19.6,N/A,,Clear,330,2014-01-15 17:53:00
12:53 PM,51.1,18.0,27,30.23,10.0,NW,9.2,20.7,N/A,,Clear,320,2014-01-15 18:53:00
1:53 PM,50.0,18.0,28,30.21,10.0,NW,10.4,20.7,N/A,,Clear,320,2014-01-15 19:53:00
2:53 PM,51.1,17.1,26,30.21,10.0,NW,17.3,23.0,N/A,,Clear,310,2014-01-15 20:53:00
3:53 PM,48.9,15.1,26,30.22,10.0,NW,13.8,21.9,N/A,,Clear,310,2014-01-15 21:53:00
4:53 PM,46.0,17.1,31,30.22,10.0,NNW,9.2,-,N/A,,Clear,340,2014-01-15 22:53:00
5:53 PM,41.0,18.0,40,30.23,10.0,NW,5.8,-,N/A,,Clear,320,2014-01-15 23:53:00
6:53 PM,37.9,21.9,53,30.25,10.0,North,6.9,-,N/A,,Clear,10,2014-01-16 00:53:00
7:53 PM,36.0,21.9,57,30.26,10.0,NNE,4.6,-,N/A,,Clear,20,2014-01-16 01:53:00
8:53 PM,32.0,21.0,64,30.26,10.0,Calm,Calm,-,N/A,,Clear,0,2014-01-16 02:53:00
9:53 PM,28.0,19.9,72,30.25,10.0,Calm,Calm,-,N/A,,Clear,0,2014-01-16 03:53:00
10:53 PM,26.1,23.0,88,30.24,10.0,South,3.5,-,N/A,,Clear,170,2014-01-16 04:53:00
11:53 PM,24.1,21.9,91,30.21,10.0,South,3.5,-,N/A,,Clear,180,2014-01-16 05:53:00